Location: *
(49.1466°N, 1.6216°E)
Time: 17:54:36
(UTC+00:00)

Cosmos 1934 Rocket - Pass Details

Date: 25 September 2023
Orbit: 937 x 999 km, 83.0° (Epoch: 10 December)

Event Time Altitude Azimuth Distance (km) Brightness Sun altitude
Rises 19:16:31 0° 354° (N) 3,734 7.4 -15.5°
Reaches altitude 10° 19:19:15 10° 2° (N) 2,777 6.6 -15.9°
Maximum altitude 19:25:15 41° 72° (ENE) 1,402 4.5 -16.8°
Enters shadow 19:28:16 26° 124° (ESE) 1,846 4.9 -17.3°
